Location: Coupvray
(48.8929°N, 2.7967°E)
Time: 04:23:22
(UTC+00:00)

GRACE-FO 1 - Pass Details

Date: 14 July 2020
Orbit: 480 x 507 km, 89.0° (Epoch: 06 August)

Event Time Altitude Azimuth Distance (km) Brightness Sun altitude
Rises 01:09:51 0° 359° (N) 2,571 9.6 -17.5°
Reaches altitude 10° 01:11:58 10° 358° (N) 1,681 8.4 -17.4°
Maximum altitude 01:15:36 81° 273° (W) 496 4.5 -17.2°
Enters shadow 01:16:42 43° 191° (S) 694 4.8 -17.1°
